Orbital Elements at Epoch 2459200.5 (2020-Dec-17.0) TDB
Reference: JPL 38 (heliocentric ecliptic J2000)
Element | Value | Uncertainty (1-sigma) | Units |
e | .1132997532898774 | 3.6937e-08 | |
a | 2.583087101820776 | 1.1586e-08 | au |
q | 2.290423970458217 | 9.6709e-08 | au |
i | 13.73411289053936 | 3.761e-06 | deg |
node | 279.3129425627735 | 1.7578e-05 | deg |
peri | 99.03702574384829 | 2.6445e-05 | deg |
M | 78.95952632646824 | 1.8659e-05 | deg |
tp | 2458867.910115167027 (2020-Jan-19.41011517) | 7.8564e-05 | TDB |
period | 1516.376352674935 4.15 | 1.0202e-05 2.793e-08 | d yr |
n | .2374080810248384 | 1.5973e-09 | deg/d |
Q | 2.875750233183334 | 1.2899e-08 | au |
|
| | Orbit Determination Parameters
Additional Information
|